FW7894 Weather Reports


time (UTC)temp
F
wind
direction
speed
knots
gust
knots
rain 1hr
in
rain 24hr
in
rain mn
in
humidity
%
barometer
mb
20260906140905 83 189 0.9 2.6 0.00 0.00 0.00 87 1013.8
20260906140005 82 64 0.9 2.6 0.00 0.00 0.00 89 1013.9
20260906135404 82 119 0.9 2.6 0.00 0.00 0.00 91 1014.0
20260906134526 80 206 0.0 1.7 0.00 0.00 0.00 95 1013.8
20260906133604 79 212 0.9 2.6 0.00 0.00 0.00 97 1014.0
20260906132705 78 231 0.9 3.5 0.00 0.00 0.00 98 1013.9
20260906131804 78 201 0.9 1.7 0.00 0.00 0.00 98 1014.0
20260906130905 77 147 0.0 0.9 0.00 0.00 0.00 99 1014.0
20260906130005 77 144 0.0 0.9 0.00 0.00 0.00 100 1014.0
20260906125404 76 142 0.0 0.9 0.00 0.00 0.00 100 1014.2
20260906124504 76 224 0.0 0.9 0.00 0.00 0.00 100 1014.2
20260906123604 76 259 0.0 1.7 0.00 0.00 0.00 100 1014.4
20260906122705 75 8 0.0 0.9 0.00 0.00 0.00 100 1014.5
20260906121825 75 338 0.0 1.7 0.00 0.00 0.00 100 1014.4
20260906120925 75 345 0.0 1.7 0.00 0.00 0.00 100 1014.2
20260906120004 75 345 0.0 0.9 0.00 0.00 0.00 100 1014.1
20260906115425 75 345 0.0 0.9 0.00 0.00 0.00 100 1014.0
20260906114504 74 0 0.0 0.0 0.00 0.00 0.00 100 1013.9
20260906113604 74 0 0.0 0.0 0.00 0.00 0.00 100 1014.1
20260906112704 74 0 0.0 0.0 0.00 0.00 0.00 100 1014.0
20260906111804 74 345 0.0 0.9 0.00 0.00 0.00 100 1014.0
20260906110904 74 345 0.0 0.9 0.00 0.00 0.00 100 1013.9
20260906110004 74 0 0.0 0.0 0.00 0.00 0.00 100 1013.8
20260906105404 74 0 0.0 0.0 0.00 0.00 0.00 100 1013.7
20260906104504 74 0 0.0 0.0 0.00 0.00 0.00 100 1013.7
20260906103604 74 0 0.0 0.0 0.00 0.00 0.00 100 1013.6
20260906102704 74 0 0.0 0.0 0.00 0.00 0.00 100 1013.7
20260906101804 74 345 0.0 0.9 0.00 0.00 0.00 100 1013.4
20260906100904 75 345 0.0 0.9 0.00 0.00 0.00 100 1013.5
20260906100004 75 345 0.0 0.9 0.00 0.00 0.00 100 1013.4
20260906095425 75 345 0.0 0.9 0.00 0.00 0.00 100 1013.4
20260906094504 75 345 0.0 0.9 0.00 0.00 0.00 100 1013.4
20260906093604 76 350 0.0 1.7 0.00 0.00 0.00 100 1013.3
20260906092704 75 321 0.0 1.7 0.00 0.00 0.00 100 1013.2
20260906091804 75 321 0.0 1.7 0.00 0.00 0.00 100 1013.1
20260906090904 75 327 0.0 2.6 0.00 0.00 0.00 100 1013.1
20260906090004 75 345 0.0 0.9 0.00 0.00 0.00 100 1012.8
20260906085404 75 345 0.0 0.9 0.00 0.00 0.00 100 1012.9
20260906084503 76 0 0.0 0.0 0.00 0.00 0.00 100 1013.1
20260906083625 76 0 0.0 0.0 0.00 0.00 0.00 100 1013.1
20260906082703 76 345 0.0 0.9 0.00 0.00 0.00 100 1013.3
20260906081804 75 345 0.9 2.6 0.00 0.00 0.00 100 1013.3
20260906080903 75 339 0.9 2.6 0.00 0.00 0.00 100 1013.4
20260906080003 75 0 0.0 0.0 0.00 0.00 0.00 100 1013.3
20260906075403 75 0 0.0 0.0 0.00 0.00 0.00 100 1013.2
20260906074504 75 0 0.0 0.0 0.00 0.00 0.00 100 1013.1
20260906073603 75 0 0.0 0.0 0.00 0.00 0.00 99 1013.1
20260906072703 75 0 0.0 0.0 0.00 0.00 0.00 100 1013.1
20260906071803 75 0 0.0 0.0 0.00 0.00 0.00 100 1013.1
20260906070924 75 0 0.0 0.0 0.00 0.00 0.00 99 1013.0
20260906070024 75 0 0.0 0.0 0.00 0.00 0.00 99 1013.0
20260906065403 75 0 0.0 0.0 0.00 0.00 0.00 99 1013.0
20260906064503 75 0 0.0 0.0 0.00 0.00 0.00 99 1013.0
20260906063603 75 0 0.0 0.0 0.00 0.00 0.00 99 1013.0
20260906062703 76 0 0.0 0.0 0.00 0.00 0.00 99 1013.2
20260906061803 76 0 0.0 0.0 0.00 0.00 0.00 99 1013.2
20260906060903 76 0 0.0 0.0 0.00 0.00 0.00 99 1013.3
20260906060003 76 0 0.0 0.0 0.00 0.00 0.00 99 1013.5
20260906055403 76 0 0.0 0.0 0.00 0.00 0.00 99 1013.6
20260906054505 76 0 0.0 0.0 0.00 0.00 0.00 99 1013.7
20260906053605 76 0 0.0 0.0 0.00 0.00 0.00 98 1013.7
20260906052725 76 0 0.0 0.0 0.00 0.00 0.00 99 1013.6
20260906051805 76 238 0.0 0.9 0.00 0.00 0.00 98 1013.7
20260906050926 76 0 0.0 0.0 0.00 0.00 0.00 98 1013.8
20260906050026 76 0 0.0 0.0 0.00 0.00 0.00 98 1013.7
20260906045404 77 0 0.0 0.0 0.00 0.00 0.00 98 1013.9
20260906044504 77 0 0.0 0.0 0.00 0.00 0.00 98 1013.9
20260906043605 77 0 0.0 0.0 0.00 0.00 0.00 98 1013.7
20260906042704 77 0 0.0 0.0 0.00 0.00 0.00 97 1013.9
20260906041804 77 0 0.0 0.0 0.00 0.00 0.00 97 1014.0
20260906040905 77 0 0.0 0.0 0.00 0.00 0.00 97 1014.1
20260906040004 77 0 0.0 0.0 0.00 0.00 0.00 97 1014.2
20260906035405 77 0 0.0 0.0 0.00 0.00 0.00 97 1014.3
20260906034505 77 0 0.0 0.0 0.00 0.00 0.00 97 1014.3
20260906033604 77 0 0.0 0.0 0.00 0.00 0.00 97 1014.0
20260906032704 77 0 0.0 0.0 0.00 0.00 0.00 97 1014.1
20260906031804 77 0 0.0 0.0 0.00 0.00 0.00 96 1014.1
20260906030925 77 0 0.0 0.0 0.00 0.00 0.00 96 1014.0
20260906030004 78 0 0.0 0.0 0.00 0.00 0.00 96 1014.0
20260906025425 78 0 0.0 0.0 0.00 0.00 0.00 96 1013.9
20260906024504 78 0 0.0 0.0 0.00 0.00 0.00 95 1013.8
20260906023625 78 0 0.0 0.0 0.00 0.00 0.00 95 1013.8
20260906022704 78 0 0.0 0.0 0.00 0.00 0.00 95 1013.8
20260906021804 78 0 0.0 0.0 0.00 0.00 0.00 95 1013.6
20260906020904 79 0 0.0 0.0 0.00 0.00 0.00 94 1013.8
20260906020004 79 0 0.0 0.0 0.00 0.00 0.00 94 1013.8
20260906015404 79 0 0.0 0.0 0.00 0.00 0.00 94 1013.6
20260906014504 79 0 0.0 0.0 0.00 0.00 0.00 93 1013.3
20260906013604 80 0 0.0 0.0 0.00 0.00 0.00 92 1013.2
20260906012704 80 0 0.0 0.0 0.00 0.00 0.00 92 1013.0
20260906011825 80 0 0.0 0.0 0.00 0.00 0.00 91 1012.8
20260906010904 81 0 0.0 0.0 0.00 0.00 0.00 90 1012.8
20260906010025 81 0 0.0 0.0 0.00 0.00 0.00 89 1012.4
20260906005404 81 0 0.0 0.0 0.00 0.00 0.00 89 1012.3
20260906004504 82 0 0.0 0.0 0.00 0.00 0.00 88 1012.3
20260906003604 82 0 0.0 0.0 0.00 0.00 0.00 88 1012.0
20260906002704 82 0 0.0 0.0 0.00 0.00 0.00 87 1012.0
20260906001825 83 0 0.0 0.0 0.00 0.00 0.00 86 1012.2
20260906000904 83 0 0.0 0.0 0.00 0.00 0.00 85 1012.3
20260906000003 84 0 0.0 0.0 0.00 0.00 0.00 84 1012.3
20260905235403 84 0 0.0 0.0 0.00 0.00 0.00 84 1012.6
20260905234524 84 230 0.0 2.6 0.00 0.00 0.00 83 1012.6
20260905233603 85 221 0.0 1.7 0.00 0.00 0.00 83 1012.7
20260905232704 85 218 0.9 4.3 0.00 0.00 0.00 82 1012.7
20260905231803 85 222 1.7 5.2 0.00 0.00 0.00 82 1012.6
20260905230903 86 229 0.9 1.7 0.00 0.00 0.00 81 1012.7
20260905230004 86 237 1.7 3.5 0.00 0.00 0.00 80 1012.6
20260905225403 87 242 1.7 4.3 0.00 0.00 0.00 79 1012.6
20260905224503 87 213 0.9 3.5 0.00 0.00 0.00 78 1012.7
20260905223604 87 191 1.7 4.3 0.00 0.00 0.00 78 1012.9
20260905222703 88 210 1.7 4.3 0.00 0.00 0.00 76 1012.9
20260905221803 89 216 2.6 6.1 0.00 0.00 0.00 74 1012.7
20260905220903 89 217 1.7 6.1 0.00 0.00 0.00 74 1012.7
20260905220003 89 194 1.7 4.3 0.00 0.00 0.00 74 1012.7
20260905215403 89 186 1.7 4.3 0.00 0.00 0.00 74 1012.7
20260905214503 89 244 1.7 4.3 0.00 0.00 0.00 74 1012.8
20260905213603 89 217 1.7 5.2 0.00 0.00 0.00 72 1012.9
20260905212703 88 191 0.9 3.5 0.00 0.00 0.00 75 1012.7
20260905211804 87 190 1.7 4.3 0.00 0.00 0.00 77 1013.2
20260905210903 87 157 0.9 4.3 0.00 0.00 0.00 77 1013.2
20260905210003 87 196 2.6 5.2 0.00 0.00 0.00 76 1013.2
20260905205403 87 184 2.6 5.2 0.00 0.00 0.00 77 1013.2
20260905204505 86 182 2.6 5.2 0.00 0.00 0.00 80 1013.3
20260905203626 86 182 2.6 5.2 0.00 0.00 0.00 82 1013.7
20260905202726 86 193 2.6 5.2 0.00 0.00 0.00 81 1013.5
20260905201826 86 178 2.6 6.1 0.00 0.00 0.00 80 1013.6
20260905200906 87 189 2.6 6.1 0.00 0.00 0.00 78 1013.9
20260905200005 87 197 2.6 7.0 0.00 0.00 0.00 78 1014.0
20260905195405 87 188 2.6 7.0 0.00 0.00 0.00 79 1014.1
20260905194505 86 204 3.5 7.0 0.00 0.00 0.00 79 1014.3
20260905193605 85 181 3.5 7.0 0.00 0.00 0.00 81 1014.4
20260905192704 84 161 3.5 7.0 0.00 0.00 0.00 83 1014.5
20260905191805 84 188 2.6 7.8 0.00 0.00 0.00 83 1014.6
20260905190905 83 171 3.5 8.7 0.00 0.00 0.00 84 1014.5
20260905190005 82 197 2.6 6.1 0.00 0.00 0.00 85 1014.7
20260905185405 82 188 2.6 7.0 0.00 0.00 0.00 85 1014.9
20260905184505 82 195 2.6 7.0 0.00 0.00 0.00 86 1014.9
20260905183605 81 201 2.6 5.2 0.00 0.00 0.00 87 1015.1
20260905182704 81 193 2.6 6.1 0.00 0.00 0.00 87 1015.3
20260905181804 80 195 2.6 7.0 0.00 0.00 0.00 90 1015.5
20260905180905 80 212 3.5 7.0 0.00 0.00 0.00 90 1015.8
20260905180025 81 192 2.6 6.1 0.00 0.00 0.00 90 1016.0
20260905175404 80 195 3.5 9.6 0.00 0.00 0.00 90 1016.0
20260905174504 80 191 3.5 7.8 0.00 0.00 0.00 91 1016.2
20260905173604 80 204 3.5 7.0 0.00 0.00 0.00 91 1016.4
20260905172704 80 202 3.5 7.8 0.00 0.00 0.00 90 1016.6
20260905171825 80 216 2.6 6.1 0.00 0.00 0.00 91 1016.5
20260905170904 80 217 2.6 7.0 0.00 0.00 0.00 91 1016.7
20260905170004 79 214 3.5 8.7 0.00 0.00 0.00 92 1016.8
20260905165404 80 196 3.5 8.7 0.00 0.00 0.00 91 1016.8
20260905164525 80 215 2.6 7.8 0.00 0.00 0.00 91 1016.7
20260905163604 80 210 3.5 8.7 0.00 0.00 0.00 91 1016.8
20260905162704 80 241 3.5 7.0 0.00 0.00 0.00 91 1016.8
20260905161804 80 255 2.6 10.4 0.00 0.00 0.00 92 1016.8
20260905160904 79 242 1.7 10.4 0.00 0.00 0.00 92 1017.1
20260905160025 79 216 2.6 6.1 0.00 0.00 0.00 93 1017.2
20260905155404 79 209 3.5 13.0 0.00 0.00 0.00 93 1017.3
20260905154504 80 197 3.5 13.0 0.00 0.00 0.00 92 1017.3
20260905153604 80 207 3.5 7.0 0.00 0.00 0.00 92 1017.0
20260905152704 80 209 3.5 7.0 0.00 0.00 0.00 92 1016.6
20260905151804 80 205 3.5 7.8 0.00 0.00 0.00 91 1016.5
20260905150904 80 212 3.5 7.8 0.00 0.00 0.00 91 1016.5
20260905150004 80 200 3.5 7.8 0.00 0.00 0.00 91 1016.3
20260905145404 80 202 2.6 6.1 0.00 0.00 0.00 92 1016.2
20260905144504 80 215 2.6 6.1 0.00 0.00 0.00 91 1016.2
20260905143604 80 212 2.6 6.1 0.00 0.00 0.00 92 1016.1
20260905142704 80 209 1.7 4.3 0.00 0.00 0.00 92 1016.1
20260905141804 80 246 1.7 6.1 0.00 0.00 0.00 92 1016.0